Location: Asheville, NC
(35.6000°N, 82.5500°W)
Time: 16:41:56
(UTC-05:00)

KKS-1 - Visible Passes

Search period start: 19 January 2018 00:00
Search period end: 29 January 2018 00:00
Orbit: 637 x 651 km, 98.3° (Epoch: 18 January)

Date Brightness Start Highest point End Pass type
(mag) Time Alt. Az. Time Alt. Az. Time Alt. Az.
19 Jan ? 05:43:26 10° SSW 05:44:43 18° SSW 05:44:43 18° SSW visible
19 Jan ? 19:14:51 10° NNW 19:17:12 14° WNW 19:19:32 10° W visible
20 Jan ? 04:32:01 10° SE 04:32:05 10° SE 04:32:05 10° SE visible
20 Jan ? 06:09:06 10° SW 06:09:45 13° SW 06:09:45 13° SW visible
21 Jan ? 04:56:07 10° SSE 04:57:06 16° SSE 04:57:06 16° SSE visible
21 Jan ? 18:26:12 10° N 18:30:27 45° WNW 18:34:42 10° SW visible
22 Jan ? 05:20:43 10° S 05:22:08 20° S 05:22:08 20° S visible
22 Jan ? 18:51:25 10° NNW 18:55:01 25° WNW 18:58:37 10° WSW visible
23 Jan ? 05:45:47 10° SSW 05:47:11 19° SSW 05:47:11 19° SSW visible
23 Jan ? 19:17:16 10° NW 19:19:29 14° WNW 19:21:43 10° W visible
24 Jan ? 04:34:16 10° SE 04:34:34 12° SE 04:34:34 12° SE visible
24 Jan ? 06:11:30 10° SW 06:12:14 13° SW 06:12:14 13° SW visible
25 Jan ? 04:58:24 10° SSE 04:59:36 18° SSE 04:59:36 18° SSE visible
25 Jan ? 18:28:32 10° N 18:32:45 44° WNW 18:36:59 10° SW visible
26 Jan ? 05:23:02 10° S 05:24:40 22° S 05:24:40 22° S visible
26 Jan ? 18:53:45 10° NNW 18:57:19 24° WNW 19:00:52 10° WSW visible
27 Jan ? 05:48:08 10° SSW 05:49:44 20° SSW 05:49:44 20° SSW visible
27 Jan ? 19:19:41 10° NW 19:21:47 13° WNW 19:23:52 10° W visible
28 Jan ? 04:36:31 10° SE 04:37:08 13° SE 04:37:08 13° SE visible
28 Jan ? 06:13:54 10° SW 06:14:48 14° SW 06:14:48 14° SW visible
